Location: Tyrv��
(61.3333°N, 23.0000°E)
Time: 08:42:38
(UTC+00:00)

Daily predictions for brighter satellites

Satellite Brightness Start Highest point End
(mag) Time Altitude Azimuth Time Altitude Azimuth Time Altitude Azimuth
Meteor 1-11 4.4 18:06:32 10° NNW 18:12:22 84° WSW 18:18:06 10° SSE
COSMOS 2455 3.3 18:08:30 10° NW 18:14:27 61° SW 18:20:23 10° SSE
Cosmos 1140 Rocket 4.4 18:10:56 10° SSE 18:15:12 27° ESE 18:19:28 10° NE
CZ-2C R/B 3.2 18:11:29 10° NNE 18:16:11 34° E 18:20:53 10° SSE
Cosmos 1470 3.9 18:12:24 10° SW 18:16:13 49° WNW 18:20:05 10° N
Cosmos 1697 Rocket 3.3 18:10:41 10° NW 18:16:14 50° NNE 18:21:45 10° ESE
Cosmos 1953 2.4 18:12:17 10° SSW 18:16:17 83° WNW 18:20:19 10° NNE
Cosmos 2218 Rocket 4.3 18:14:06 10° N 18:20:09 52° ENE 18:26:14 10° SE
Cosmos 1726 2.1 18:17:16 10° SSW 18:21:00 86° ESE 18:24:46 10° NNE
Cosmos 841 Rocket 4.2 18:16:14 10° NNW 18:21:19 44° NE 18:26:21 10° ESE
Cosmos 2084 3.8 18:18:11 10° W 18:22:41 73° N 18:27:08 10° E
Spot 2 Rocket 3.8 18:17:53 10° SE 18:22:52 55° ENE 18:27:52 10° NNW
Meteor 2-10 4.2 18:17:51 10° S 18:23:25 82° ESE 18:29:11 10° NNE
MetOp-A 4.4 18:18:24 10° SSE 18:23:47 77° WSW 18:29:11 10° NNW
Cosmos 1408 4.1 18:21:53 10° N 18:24:51 23° ENE 18:27:48 10° ESE
Cosmos 2058 Rocket 3.5 18:20:55 10° SSE 18:25:12 44° E 18:29:30 10° NNE
Landsat 7 4.4 18:20:47 10° SE 18:25:18 44° ENE 18:29:50 10° N
Cosmos 2344 4.1 18:18:07 10° WNW 18:26:16 82° NNE 18:37:09 10° E
Cosmos 614 Rocket 4.3 18:22:35 10° S 18:27:30 43° ESE 18:32:26 10° NE
SL-24 R/B 4.1 18:24:58 10° NNE 18:29:15 52° E 18:33:04 10° S
ARGOS 4.2 18:25:00 10° S 18:30:12 48° W 18:35:26 10° NNW
Cosmos 468 Rocket 4.1 18:27:17 10° NNW 18:32:31 73° NE 18:37:40 10° SE
Cosmos 1726 Rocket 3.6 18:28:51 10° S 18:33:15 68° E 18:37:43 10° NNE
SL-16 R/B 2.9 18:27:42 10° WSW 18:33:19 61° NW 18:38:59 10° NE
SL-16 R/B 3.5 18:28:25 10° NW 18:33:35 34° NNE 18:38:45 10° ENE
Cosmos 2154 Rocket 4.4 18:27:19 10° NNW 18:33:41 71° W 18:39:59 10° S
NOSS 7 (E) 4.5 18:31:10 10° WNW 18:34:22 86° NNE 18:38:11 10° ESE
IGS 5A 4.0 18:30:43 10° SE 18:34:40 44° ENE 18:38:38 10° N
Cosmos 1570 Rocket 4.4 18:31:02 10° NNW 18:36:21 56° NE 18:41:29 11° SE
ERBS 3.7 18:33:37 10° W 18:36:31 27° SSW 18:39:24 10° SE
SL-8 Rocket 4.1 18:30:30 10° NNW 18:36:50 70° ENE 18:43:09 10° SSE
ATLAS CENTAUR R/B 1.4 18:32:43 10° WNW 18:36:51 74° NNE 18:40:35 11° ESE
Cosmos 2360 Rocket 3.7 18:31:54 10° WNW 18:36:55 31° N 18:41:55 10° ENE
Resurs 01 Rocket 1.7 18:32:52 10° SSE 18:37:17 84° WSW 18:41:46 10° NNW
NOSS 2-1 (C) 3.8 18:33:54 10° W 18:37:43 67° N 18:42:44 10° E
Cosmos 921 Rocket 3.7 18:35:04 10° NW 18:39:10 51° WSW 18:43:13 10° S
Nadezhda 1 Rocket 4.0 18:33:49 10° S 18:40:10 76° E 18:46:31 10° NNE
USA 186 4.3 18:39:18 10° SSW 18:41:56 22° W 18:44:28 10° NW
NOSS 2-1 (D) 3.9 18:38:08 10° W 18:41:59 67° N 18:47:02 10° E
Cosmos 2322 Rocket 3.5 18:36:57 10° NW 18:42:07 34° NNE 18:47:14 10° ENE
Cosmos 1656 3.8 18:38:19 10° NW 18:44:05 80° NE 18:49:30 11° SE
Cosmos 2181 Rocket 4.4 18:38:46 10° SSE 18:44:33 42° E 18:50:18 10° NNE
Cosmos 1980 Rocket 2.8 18:39:57 10° NW 18:45:26 48° NNE 18:50:48 10° ESE
Cosmos 407 Rocket 3.6 18:43:48 10° S 18:48:46 51° ESE 18:53:44 10° NE
Cosmos 2366 rocket 4.0 18:43:32 10° NNW 18:49:42 69° ENE 18:55:50 10° SSE
Cosmos 2333 Rocket 3.8 18:46:12 10° WNW 18:51:18 33° N 18:56:23 10° ENE
ERS-1 Rocket 3.3 18:47:20 11° SE 18:52:01 52° ENE 18:56:54 10° NNW
Cosmos 2228 3.2 18:47:41 10° SSW 18:52:02 79° WNW 18:56:27 10° NNE
Cosmos 1892 3.0 18:49:42 10° N 18:53:33 55° ENE 18:57:00 12° SSE
Cosmos 1603 3.7 18:50:26 10° SW 18:56:05 90° NW 19:01:44 10° NE
Cosmos 1812 Rocket 4.4 18:52:40 10° SSE 18:56:30 31° E 19:00:21 10° NNE
ADEOS Rocket 4.5 18:50:18 10° NNE 18:56:40 45° NW 19:02:24 10° WSW
Cosmos 1455 4.0 18:55:18 13° ESE 18:56:50 16° E 18:59:16 10° NE
Cosmos 220 Rocket 4.3 18:52:56 10° NW 18:57:13 66° WSW 19:01:33 10° SSE
Aureole 1 Rocket 3.9 18:50:43 10° SSW 18:57:30 62° ESE 19:02:42 10° NE
Cosmos 2237 Rocket 3.7 18:52:18 10° W 18:57:33 37° NNW 19:02:49 10° NE
SPOT 5 3.1 18:55:01 13° SE 18:58:35 45° ENE 19:02:45 10° N
Elektron 3 4.2 18:56:09 10° WSW 19:01:19 77° S 19:04:22 10° E
Cosmos 1606 Rocket 4.1 18:58:41 10° SSW 19:03:07 64° WNW 19:07:36 10° NNE
ATLAS 5 CENTAUR R/B 2.5 18:59:54 10° S 19:03:41 29° SE 19:07:55 10° ENE
Cosmos 1825 3.0 19:00:12 10° N 19:03:44 35° ENE 19:06:15 16° ESE
Cosmos 2360 4.4 19:00:21 10° NW 19:06:03 65° NE 19:10:50 15° ESE
Terra 2.4 19:03:34 15° SE 19:07:19 45° ENE 19:11:52 10° NNW
Cosmos 1818 3.6 19:03:23 10° SW 19:08:45 62° SE 19:14:09 10° ENE
Cosmos 2151 3.3 19:06:08 10° N 19:10:15 48° ENE 19:13:16 17° SE
Cosmos 2058 2.9 19:06:36 10° NNW 19:10:44 89° ENE 19:14:34 12° SSE
Cosmos 2278 3.9 19:06:49 10° NW 19:12:29 66° NE 19:17:04 16° ESE
Cosmos 1954 Rocket 4.3 19:08:02 10° S 19:12:59 44° ESE 19:17:55 10° NE
Cosmos 1023 Rocket 4.5 19:09:11 10° SSW 19:14:15 59° ESE 19:19:19 10° NE
RESURS DK-1 2.4 19:10:09 10° NW 19:14:21 82° SW 19:17:24 18° SE
In-Cosmos 22 Rocket 4.4 19:08:33 10° NNW 19:14:25 80° WSW 19:20:15 10° S
Cosmos 2208 Rocket 4.0 19:10:58 10° NNW 19:16:12 78° NE 19:20:16 17° SE
SPOT 1/Viking Rocket 3.6 19:11:59 12° SSE 19:16:52 85° ENE 19:22:09 10° NNW
Cosmos 1076 Rocket 3.6 19:13:54 10° NNW 19:18:12 81° WSW 19:22:14 12° S
MOS 1 Rocket 3.6 19:13:09 10° NNE 19:18:30 86° ESE 19:23:58 10° SSW
CZ-2C R/B 4.1 19:16:14 10° NNE 19:21:00 73° WNW 19:25:39 10° SSW
Cosmos 2082 Rocket 4.1 19:22:11 10° E 19:22:33 10° E 19:23:07 10° E
Cosmos 1300 2.6 19:18:51 10° S 19:22:40 77° ESE 19:26:31 10° NNE
SL-4 R/B 3.4 19:20:48 10° SSW 19:22:39 15° S 19:22:39 15° S
Cosmos 489 Rocket 4.5 19:18:52 10° NW 19:25:08 86° WSW 19:30:11 16° SSE
Cosmos 1763 Rocket 3.7 19:21:02 10° NW 19:26:14 68° WSW 19:30:28 15° SSE
NOSS 3-3 (A) 4.1 19:21:09 10° WSW 19:27:26 81° SSE 19:34:40 10° ENE
Cosmos 1340 Rocket 3.2 19:23:25 10° SSW 19:27:27 69° WNW 19:31:30 10° NNE
NOSS 3-3 (C) 4.1 19:21:15 10° WSW 19:27:31 80° SSE 19:34:46 10° ENE
NOSS 2-1 (E) 3.9 19:26:27 10° WNW 19:30:33 71° N 19:36:02 10° E
Cosmos 1821 Rocket 4.2 19:24:41 10° NNW 19:31:02 64° ENE 19:35:55 18° SSE
Cosmos 1833 Rocket 4.1 19:32:06 16° ESE 19:33:06 17° E 19:36:38 10° ENE
SAR-Lupe-2 3.5 19:29:33 10° NNE 19:33:09 69° ESE 19:36:44 10° S
SL-08 R/B 4.5 19:28:37 10° NNW 19:34:47 89° ENE 19:40:12 14° SSE
Cosmos 1814 Rocket 4.1 19:30:01 10° NW 19:35:26 88° ENE 19:39:13 20° SE
Cosmos 2219 Rocket 3.8 19:30:30 10° WNW 19:35:31 31° N 19:40:31 10° ENE
Cosmos 1934 Rocket 4.4 19:29:43 10° N 19:35:51 49° ENE 19:40:06 19° SE
Cosmos 540 Rocket 3.5 19:30:41 10° NW 19:35:55 89° NE 19:39:30 20° SSE
USA 234 4.0 19:32:06 10° E 19:37:28 26° SE 19:42:49 10° SSW
SeaSat 1 3.5 19:34:36 10° NE 19:39:24 50° NW 19:44:10 10° WSW
Iridium 4 Rocket 3.1 19:37:02 10° N 19:41:20 75° W 19:44:57 13° S
COSMOS 2406 4.1 19:39:01 19° SSE 19:41:41 28° ESE 19:46:27 10° NE
Cosmos 1633 4.3 19:40:28 10° N 19:43:13 20° ENE 19:44:38 16° E
Meteor 2-10 Rocket 4.1 19:42:15 20° SSE 19:45:25 41° E 19:50:33 10° NNE
Cosmos 2221 4.4 19:45:02 14° E 19:45:56 15° E 19:48:22 10° NE
Cosmos-2242 3.6 19:44:33 24° SE 19:46:38 39° E 19:50:44 10° NNE
USA 32 4.0 19:41:29 10° N 19:46:47 85° E 19:50:43 18° S
CZ-4C R/B 2.8 19:44:47 10° WNW 19:51:19 73° SSW 19:56:49 21° SE
Cosmos 1943 3.8 19:46:34 10° WSW 19:52:13 62° NW 19:57:55 10° NE
Cosmos 2369 3.8 19:48:52 10° NW 19:54:31 70° SW 19:58:09 22° SSE
COSMOS 2428 4.3 19:50:54 10° WNW 19:56:03 33° N 20:01:10 10° ENE
Cosmos 1140 Rocket 3.5 19:51:20 10° SW 19:56:32 84° NW 20:01:44 10° NE
CZ-2C R/B 3.0 19:51:44 10° NNE 19:56:52 63° WNW 20:01:59 10° SW
Cosmos 1408 2.9 19:56:36 10° NNW 20:00:13 62° W 20:02:18 23° S
Cosmos 1697 Rocket 2.9 19:54:50 10° NW 20:00:29 65° WSW 20:04:03 23° SSE
Cosmos 2084 3.5 19:57:52 10° WNW 20:02:21 80° SSW 20:04:43 27° ESE
Meteor 2-1 Rocket 4.3 19:56:29 10° S 20:02:24 76° ESE 20:08:22 10° NNE
Cosmos 1850 Rocket 4.2 19:59:22 18° S 20:03:00 47° ESE 20:07:58 10° NE
Cosmos 1190 Rocket 4.3 19:57:44 10° SW 20:03:03 73° NW 20:08:21 10° NNE
Cosmos 841 Rocket 3.8 19:58:14 10° NW 20:03:29 62° WSW 20:06:47 22° S
ASTEX 1 3.6 20:05:06 27° SE 20:07:43 58° ENE 20:12:35 10° N
CARTOSAT-1 4.0 20:06:16 20° S 20:09:06 57° WSW 20:13:23 10° NNW
Cosmos 1340 4.2 20:06:10 10° N 20:09:22 25° NE 20:10:48 20° E
Okean 3 Rocket 3.8 20:05:36 10° NNW 20:10:00 68° W 20:12:40 23° S
Mayak -0.2 20:06:51 10° NNE 20:10:29 28° E 20:11:12 27° ESE
Cosmos 1356 Rocket 3.5 20:10:36 27° S 20:12:45 61° ESE 20:16:57 10° NNE
SWARM C 4.5 20:11:58 33° S 20:13:21 86° W 20:16:44 10° N
SWARM A 4.3 20:11:57 29° SSW 20:13:30 77° W 20:16:52 10° N
Resurs 01 Rocket 4.1 20:11:25 10° SW 20:14:29 18° W 20:17:35 10° NW
Cosmos 1766 Rocket 3.8 20:10:49 10° NNW 20:15:19 71° W 20:17:48 26° S
ATLAS CENTAUR R/B 2.0 20:11:51 10° WNW 20:15:35 38° SW 20:16:45 30° S
SL-16 R/B 3.9 20:13:18 10° WNW 20:18:27 34° NNW 20:23:36 10° NE
SL-16 R/B 2.5 20:13:02 10° NW 20:18:42 61° NE 20:22:22 22° ESE
ALOS 2 3.8 20:17:54 22° ESE 20:19:55 32° ENE 20:23:51 10° N
Cosmos 2360 Rocket 3.1 20:16:45 10° NW 20:22:11 45° NNE 20:26:45 14° E
Meteor 2-3 Rocket 3.7 20:19:41 10° NNW 20:25:31 89° WSW 20:28:43 28° SSE
Cosmos 1500 Rocket 3.7 20:22:16 10° N 20:26:35 61° ENE 20:28:12 36° SE
Cosmos 2322 Rocket 2.6 20:21:33 10° NW 20:27:11 60° NE 20:30:46 22° ESE
Cosmos 1805 Rocket 4.4 20:23:27 10° N 20:27:41 39° ENE 20:29:23 28° ESE
NOSS 2-1 (C) 3.8 20:24:14 10° WNW 20:28:29 89° SSW 20:31:52 24° ESE
Cosmos 1980 Rocket 2.3 20:24:09 10° NW 20:29:44 67° SW 20:32:34 30° SSE
Cosmos 407 Rocket 4.4 20:25:53 10° WSW 20:30:53 49° NW 20:35:53 10° NNE
ERS-1 Rocket 4.0 20:27:20 16° SSW 20:31:00 41° W 20:35:46 10° NNW
Cosmos 676 Rocket 4.3 20:26:33 10° SW 20:31:49 70° NW 20:37:05 10° NNE
Cosmos 1455 2.1 20:30:11 31° SSW 20:31:55 88° WNW 20:35:48 10° NNE
SL-24 R/B - RUBIN 2 4.4 20:25:55 10° SW 20:31:59 83° SSE 20:38:39 10° ENE
NOSS 2-1 (D) 3.8 20:28:28 10° WNW 20:32:45 87° SSW 20:36:00 25° ESE
Cosmos 1812 Rocket 4.3 20:29:59 10° SW 20:34:14 51° WNW 20:38:30 10° N
SPOT 5 3.7 20:34:13 19° SSW 20:36:50 37° W 20:40:54 10° NNW
Cosmos 2333 Rocket 3.5 20:31:39 10° NW 20:36:56 37° NNE 20:42:11 10° E
Cosmos 1825 3.3 20:35:46 10° NNW 20:39:19 38° W 20:41:04 24° SW
Cosmos 2344 4.3 20:32:20 10° WNW 20:40:57 66° SW 20:48:33 24° SSE
Cosmos 2237 Rocket 3.9 20:37:56 10° WNW 20:43:00 32° N 20:48:05 10° ENE
Cosmos 1633 Rocket 4.4 20:41:05 10° N 20:45:02 30° ENE 20:46:44 23° E
Intercosmos 25 3.8 20:45:20 33° E 20:45:20 33° E 20:48:08 10° NNE
Terra 2.6 20:42:27 22° SSW 20:45:08 44° W 20:49:44 10° NNW
Cosmos 2151 4.4 20:43:40 10° NNW 20:47:25 32° W 20:49:52 18° SW
ATLAS 5 CENTAUR R/B 1.6 20:43:13 10° WSW 20:47:44 80° SSE 20:53:01 10° ENE
RESURS DK-1 4.3 20:48:49 10° WNW 20:51:51 20° WSW 20:53:17 17° SW
Cosmos 1818 3.9 20:46:58 10° W 20:52:25 68° NNW 20:57:53 10° ENE
Nadezhda 3 Rocket 4.0 20:50:22 21° SSW 20:54:45 87° WNW 21:01:04 10° NNE
Cosmos 2278 4.4 20:51:11 10° NW 20:56:31 43° WSW 20:58:59 28° SSW
Cosmos 1408 Rocket 4.2 20:52:11 10° NNW 20:56:32 50° W 20:58:24 30° SSW
Thor Agena Rocket 3.7 20:52:32 10° NNE 20:57:29 51° ESE 20:59:02 38° SSE
Cosmos 1743 Rocket 3.6 20:53:12 10° NNW 20:57:41 77° W 20:59:12 41° S
Cosmos 1741 Rocket 4.0 20:54:59 14° SSW 20:59:39 88° NW 21:05:02 10° NE
Cosmos 1869 4.0 21:00:13 36° ESE 21:00:26 36° E 21:04:09 10° NNE
EO 1 Del DPAF 3.4 20:56:49 10° NNE 21:00:31 50° ESE 21:00:45 49° ESE
Cosmos 1459 Rocket 4.5 20:55:46 10° N 21:02:02 53° ENE 21:05:11 29° SE
Cosmos 1238 Rocket 3.4 21:00:05 10° N 21:02:48 31° ENE 21:02:48 31° ENE
Cosmos 2082 Rocket 2.7 21:03:59 35° SE 21:05:09 39° ESE 21:10:24 10° NE
Helios 1A 3.5 21:04:12 37° ESE 21:05:24 50° ENE 21:09:30 10° NNW
SL-16 R/B 4.4 21:03:30 10° E 21:08:15 24° NE 21:13:00 10° NNW
MTI 4.3 21:07:26 10° N 21:10:29 52° WNW 21:11:01 44° WSW
Cosmos 1153 Rocket 4.5 21:05:58 10° NNW 21:12:18 83° ENE 21:15:14 35° SSE
Cosmos 783 Rocket 4.5 21:09:19 10° NW 21:14:42 90° SSW 21:16:42 40° SSE
JB-3 4.1 21:11:42 10° NNE 21:15:34 72° ESE 21:16:03 61° SSE
Cosmos 1833 Rocket 2.7 21:13:44 35° S 21:16:01 60° ESE 21:21:34 10° NE
Cosmos 1727 Rocket 4.4 21:13:56 33° SE 21:16:21 49° E 21:22:25 10° NNE
Cosmos 1633 2.5 21:14:54 10° NNW 21:18:27 68° W 21:18:46 63° SW
NOSS 3-3 (A) 4.4 21:12:04 10° W 21:18:39 76° N 21:26:15 10° E
NOSS 3-3 (C) 4.4 21:12:09 10° W 21:18:45 76° N 21:26:20 10° E
Cosmos 1802 Rocket 4.3 21:14:07 10° NNW 21:20:18 57° ENE 21:23:09 31° SE
Cosmos 2219 Rocket 3.1 21:15:18 10° NW 21:20:43 45° NNE 21:25:38 12° E
NOSS 2-1 (E) 4.0 21:16:43 10° WNW 21:21:13 66° SSW 21:23:22 38° SE
Cosmos 1346 Rocket 2.9 21:17:21 10° NNW 21:21:22 69° ENE 21:22:04 55° SE
USA 234 3.4 21:15:17 10° E 21:21:36 49° SSE 21:27:56 10° SW
Spot 4 4.0 21:20:22 40° SSW 21:21:57 63° WSW 21:26:46 10° NNW
Cosmos 1862 3.3 21:18:18 10° NNW 21:22:24 77° ENE 21:23:07 58° SE
Cosmos 2221 2.5 21:21:51 53° SSE 21:22:45 70° E 21:27:08 10° NNE
Meteor 1-27 4.2 21:21:10 36° S 21:23:41 77° ESE 21:29:34 10° NNE
Cosmos-2242 4.1 21:21:21 18° SW 21:24:13 41° WNW 21:28:24 10° N
COSMOS 2406 3.1 21:20:59 17° SW 21:25:25 88° SE 21:31:13 10° NE
Cosmos 2100 Rocket 4.0 21:19:16 10° NNW 21:25:30 72° ENE 21:28:13 36° SSE
Cosmos 1241 Rocket 4.4 21:19:20 10° WNW 21:25:35 74° SW 21:28:24 35° SE
Meteor 2-10 Rocket 4.2 21:23:20 16° SW 21:27:25 53° WNW 21:32:51 10° NNE
Cosmos 2237 4.3 21:25:18 10° NW 21:31:03 79° NE 21:33:47 33° SE
Cosmos 1666 Rocket 3.6 21:28:46 10° NNW 21:33:08 70° ENE 21:34:02 52° SE
Cosmos 2173 Rocket 4.0 21:28:33 10° NNW 21:34:41 76° ENE 21:37:13 37° SSE
Cosmos 1605 Rocket 4.3 21:29:44 10° NNW 21:35:44 57° W 21:38:37 31° SSW
Helios 1B rocket 4.4 21:33:11 10° NE 21:35:48 16° E 21:36:02 16° E
Cosmos 1842 Rocket 3.5 21:35:18 48° SSW 21:36:28 80° WNW 21:40:51 10° NNE
CZ-4C R/B 3.7 21:33:19 10° WNW 21:39:24 34° SW 21:42:00 27° SSW
Cosmos 2322 4.1 21:34:29 10° NW 21:40:12 63° NE 21:43:41 24° ESE
Cosmos 1538 Rocket 4.1 21:35:18 10° NNW 21:40:37 76° NE 21:42:42 38° SE
COSMOS 2428 3.4 21:35:51 10° NW 21:41:28 52° NNE 21:46:06 15° ESE
YAOGAN 11 4.2 21:43:23 50° SE 21:44:32 79° ENE 21:49:09 10° NNW
Sich 1 3.1 21:40:50 10° NNW 21:45:18 76° WSW 21:46:12 55° S
Cosmos 1340 2.8 21:41:33 10° NNW 21:45:19 60° WSW 21:45:34 58° SW
Mayak -0.8 21:42:15 10° NNE 21:46:21 56° WNW 21:47:47 36° SW
Cosmos 773 Rocket 3.9 21:43:36 10° NW 21:48:49 80° WSW 21:50:21 47° SSE
Cosmos 1400 Rocket 2.7 21:48:41 67° SE 21:48:57 70° ESE 21:52:54 10° NNE
Cosmos 1486 Rocket 4.0 21:54:20 47° S 21:55:40 64° ESE 22:00:55 10° NE
ALOS 2 2.8 21:55:17 49° SW 21:56:06 58° WSW 22:00:27 10° NNW
Landsat 4 4.3 21:55:59 10° NNE 21:59:34 43° E 21:59:34 43° E
SL-16 R/B 2.6 21:57:21 10° NW 22:02:49 49° WSW 22:04:14 40° SSW
SL-16 R/B 3.9 21:58:50 10° NW 22:03:59 34° NNE 22:09:08 10° ENE
Cosmos 1805 Rocket 4.3 22:01:23 10° NNW 22:05:38 43° W 22:06:31 38° SW
Cosmos 2360 Rocket 2.1 22:00:58 10° NW 22:06:37 77° SW 22:08:30 43° SSE
Cosmos 968 Rocket 3.6 22:06:28 48° SSE 22:07:38 61° ESE 22:12:50 10° NE
Cosmos 2322 Rocket 2.5 22:05:48 10° NW 22:11:15 50° WSW 22:12:34 41° SSW
Cosmos 1980 Rocket 3.8 22:08:56 10° WNW 22:12:51 20° WSW 22:14:20 18° WSW
SL-27 R/B 3.6 22:16:47 32° ENE 22:16:47 32° ENE 22:19:03 10° NE
Cosmos 1470 Rocket 3.5 22:13:15 10° NNW 22:17:42 85° ENE 22:18:26 61° SSE
CZ-2D R/B 4.5 22:17:32 10° NE 22:19:54 13° ENE 22:22:16 10° ESE
Cosmos 2112 Rocket 4.4 22:15:57 10° NNW 22:21:08 60° NE 22:23:56 27° ESE
Cosmos 2333 Rocket 2.3 22:16:16 10° NW 22:21:58 76° NE 22:25:05 28° SE
Cosmos 1633 Rocket 3.2 22:18:47 10° NNW 22:23:10 59° W 22:23:48 52° SW
Terra 4.4 22:23:23 10° W 22:24:10 10° WNW 22:24:56 10° WNW
Meteor 2-2 Rocket 4.4 22:25:15 34° SW 22:27:43 66° WNW 22:33:22 10° NNE
Cosmos 1933 4.0 22:27:36 40° ESE 22:27:52 41° E 22:31:40 10° NNE
Cosmos 2237 Rocket 3.0 22:22:42 10° NW 22:28:15 50° NNE 22:33:46 10° ESE
SME Rocket 3.2 22:24:18 10° NNE 22:28:59 55° ESE 22:29:25 52° SE
Cosmos 2061 Rocket 4.0 22:23:23 10° NNW 22:29:38 74° W 22:32:00 40° S
Cosmos 1606 3.3 22:29:49 44° E 22:29:56 44° E 22:33:40 10° NNE
Cosmos 1151 Rocket 3.2 22:30:34 50° SE 22:31:06 54° E 22:35:19 10° NNE
ATLAS 5 CENTAUR R/B 2.2 22:27:48 10° W 22:32:35 71° N 22:38:13 10° E
Cosmos 1818 4.1 22:31:07 10° WNW 22:36:33 61° N 22:41:58 10° E
Cosmos 1869 4.3 22:35:44 33° W 22:36:43 39° WNW 22:40:32 10° N
Thor Agena Rocket 4.4 22:32:02 10° NNE 22:36:49 43° WNW 22:39:38 22° WSW
IRAS Rocket 4.2 22:37:03 43° SSE 22:39:00 81° WSW 22:44:41 10° NNW
CZ-4C R/B 4.2 22:39:28 32° E 22:40:14 36° ENE 22:43:27 10° N
Cosmos 1607 3.9 22:38:22 39° SSW 22:40:36 64° SE 22:46:49 10° ENE
Helios 1A 4.0 22:40:49 32° WSW 22:41:09 33° W 22:45:00 10° NNW
Cosmos 1315 Rocket 2.7 22:41:20 71° SSW 22:41:47 89° NW 22:45:57 10° NNE
Cosmos 1238 Rocket 4.0 22:39:48 10° NW 22:41:43 23° WNW 22:41:43 23° WNW
Meteor 1-29 4.2 22:40:52 10° NNE 22:43:46 32° E 22:43:46 32° E
Meteor 1-25 Rocket 4.2 22:39:02 10° NNW 22:44:47 77° WSW 22:46:45 43° S
CZ-4 R/B 4.3 22:40:13 10° NNE 22:45:02 53° ESE 22:46:14 43° SE
Cosmos 1354 Rocket 3.9 22:47:21 47° SSW 22:48:53 81° ESE 22:54:10 10° NE
Cosmos 2082 Rocket 2.4 22:45:47 26° WSW 22:49:02 71° NW 22:54:46 10° NE
SL-16 R/B 3.0 22:46:28 19° SE 22:50:53 57° ENE 22:56:58 10° NNW
Cosmos 1869 Rocket 3.8 22:50:22 10° NNW 22:54:50 66° ENE 22:56:03 45° SE
Cosmos 2233 Rocket 3.9 22:50:34 10° NNW 22:56:55 84° W 22:59:27 39° S
Cosmos 1346 Rocket 4.5 22:54:16 10° NW 22:57:23 22° W 22:57:35 22° W
PSLV R/B 4.0 22:53:52 10° NNE 22:58:13 53° E 22:59:07 45° SE
Cosmos 1833 Rocket 3.4 22:55:21 14° WSW 23:00:08 53° NW 23:05:41 10° NE
Cosmos 2221 4.3 22:58:41 18° W 23:00:46 26° WNW 23:04:29 10° N
Cosmos 923 Rocket 4.0 22:56:45 10° NW 23:01:58 67° WSW 23:03:20 47° S
Cosmos 1782 3.6 23:02:23 37° ESE 23:02:53 39° E 23:06:36 10° NNE
Cosmos 1725 Rocket 4.2 22:58:04 10° NNW 23:04:15 58° W 23:06:34 37° SSW
COSMOS 2487 3.8 23:04:48 29° E 23:04:48 29° E 23:07:29 10° NE
Cosmos 2016 Rocket 4.4 22:58:21 10° NNW 23:04:29 51° W 23:06:48 35° SW
Cosmos 1503 Rocket 4.0 23:02:42 41° SW 23:04:35 80° NW 23:09:50 10° NNE
Cosmos 2219 Rocket 2.1 22:59:27 10° NW 23:05:05 75° SW 23:07:19 38° SSE
USA 234 3.2 22:58:48 10° E 23:05:18 63° S 23:11:49 10° W
NOSS 3-3 (A) 4.3 23:03:06 10° WNW 23:10:01 89° SSW 23:17:56 10° ESE
NOSS 3-3 (C) 4.3 23:03:11 10° WNW 23:10:06 89° SSW 23:18:02 10° ESE
COSMOS 2406 4.4 23:04:55 10° W 23:10:20 42° NNW 23:15:48 10° NE
Cosmos 1933 Rocket 3.9 23:06:51 10° NNW 23:11:09 50° W 23:11:43 46° WSW
Helios 1B rocket 2.3 23:07:36 10° NNE 23:11:46 81° ESE 23:12:21 63° S
Cosmos 1515 Rocket 3.5 23:11:39 58° S 23:12:27 78° E 23:16:51 10° NNE
Meteor 1-14 Rocket 4.3 23:08:20 10° NNW 23:14:20 73° WSW 23:16:35 40° S
Meteor 1-26 Rocket 4.4 23:13:13 38° SSE 23:15:25 66° E 23:21:06 10° NNE
Cosmos 44 2.9 23:14:59 55° SW 23:15:54 83° SE 23:20:18 10° ENE
Spot 1 4.0 23:16:00 56° SW 23:16:27 60° WSW 23:20:33 10° NNW
Cosmos 1680 Rocket 3.5 23:13:50 10° NW 23:19:01 64° WSW 23:20:30 45° S
Mayak 1.3 23:18:44 10° N 23:21:11 15° NW 23:23:37 10° W
Cosmos 2123 Rocket 3.9 23:19:41 38° SSW 23:22:14 81° WNW 23:28:30 10° NNE
ADEOS II 4.4 23:19:47 10° NE 23:22:45 15° E 23:25:43 10° ESE
Cosmos 2322 4.0 23:18:52 10° NW 23:24:20 46° WSW 23:25:36 40° SSW
Cosmos 1464 Rocket 4.0 23:18:46 10° NNW 23:24:57 75° ENE 23:28:26 27° SSE
COSMOS 2428 2.7 23:20:19 10° NW 23:25:58 63° WSW 23:28:04 38° S
Cosmos 1980 3.7 23:25:36 10° NW 23:31:20 86° NE 23:36:18 14° SE
Cosmos 1328 Rocket 3.9 23:30:29 43° WSW 23:31:29 55° WNW 23:35:45 10° N
Cosmos 1441 Rocket 3.5 23:29:19 10° NNW 23:32:56 48° W 23:32:56 48° W
DELTA 2 DEB (DPAF) 4.2 23:33:18 51° SSW 23:34:11 63° WSW 23:38:38 10° NNW
Resurs 1-4 Rocket 3.3 23:30:20 10° NNE 23:35:08 33° E 23:37:53 21° SE
NOSS 0 Rocket 3.8 23:30:37 10° NW 23:36:48 74° SW 23:40:58 22° SSE
SJ 16-02 2.7 23:37:59 24° SE 23:39:15 28° ESE 23:43:00 10° NE
Cosmos 1812 4.0 23:40:53 26° SE 23:42:03 32° E 23:45:33 10° NNE
MOS 1-B Rocket 4.4 23:37:08 10° NNE 23:42:57 59° WNW 23:46:30 27° SW
SL-16 R/B 4.1 23:43:00 10° WNW 23:45:40 14° W 23:46:05 14° W
SL-16 R/B 2.7 23:43:27 10° NW 23:49:06 61° NE 23:54:44 10° ESE
Cosmos 968 Rocket 4.4 23:46:27 20° WSW 23:49:42 44° NW 23:54:46 10° NNE
Cosmos 2360 Rocket 3.4 23:45:34 10° NW 23:49:53 23° WSW 23:50:15 23° WSW
SL-27 R/B 3.6 23:50:19 30° WNW 23:51:03 34° NW 23:54:11 10° NNE
Cosmos 2228 Rocket 3.1 23:50:00 46° SSW 23:51:21 81° WNW 23:55:58 10° NNE
SL-19 R/B 4.3 23:47:14 10° NNE 23:53:09 80° ESE 23:55:39 35° SSW
Cosmos 2322 Rocket 4.1 23:51:21 10° WNW 23:54:04 14° W 23:54:22 14° W
